Weather History for Orange, MA

Change the Weather History Date:

Sunday, February 3, 2013

  Actual Average Record
Temperature  
Mean Temperature 20 °F -  
Max Temperature 27 °F 32 °F 46 °F (1999)
Min Temperature 12 °F 11 °F -4 °F (2000)
Degree Days  
Heating Degree Days 46    
Moisture  
Dew Point 15 °F    
Average Humidity 78    
Maximum Humidity 93    
Minimum Humidity 56    
Precipitation  
Precipitation 0.00 in - - ()
Sea Level Pressure  
Sea Level Pressure 29.90 in    
Wind  
Wind Speed 1 mph (SW)    
Max Wind Speed 6 mph    
Max Gust Speed -    
Visibility 8 miles    
Events Snow    
Averages and records for this station are not official NWS values.
T = Trace of Precipitation, MM = Missing Value Source: NWS Daily Summary

Daily Weather History Graph

Daily Weather History Graph

Search for Another Location

Airport:

Trip Planner

Search our weather history database for the weather conditions in past years. The results will help you decide how hot, cold, wet, or windy it might be!

Date:

Astronomy

Feb. 03, 2013 Rise Set
Actual Time 7:00 AM EST 5:05 PM EST
Civil Twilight 6:31 AM EST 5:35 PM EST
Nautical Twilight 5:57 AM EST 6:09 PM EST
Astronomical Twilight 5:24 AM EST 6:42 PM EST
Moon 12:25 AM EST (2/3) 10:40 AM EST (2/3)
Length of Visible Light 11h 04m
Length of Day
10h 04m
Waning Gibbous, 49% of the Moon is Illuminated
Feb 3
Waning Gibbous
Feb 10
New
Feb 17
First Quarter
Feb 25
Full
Mar 4
Last Quarter

Hourly Weather History & Observations

Time (EST) Temp. Windchill Dew Point Humidity Pressure Visibility Wind Dir Wind Speed Gust Speed Precip Events Conditions
12:12 AM 21.2 °F - 15.8 °F 80% 30.02 in 2.5 mi Calm Calm - 0.00 in Snow Light Snow
12:52 AM 19.9 °F - 16.0 °F 85% 30.04 in 5.0 mi Calm Calm - 0.00 in Snow Light Snow
1:03 AM 19.4 °F - 15.8 °F 86% 30.01 in 1.8 mi Calm Calm - 0.00 in Snow Light Snow
1:21 AM 19.4 °F 14.3 °F 15.8 °F 86% 30.00 in 2.5 mi South 3.5 mph - 0.00 in Snow Light Snow
1:37 AM 19.4 °F 14.3 °F 17.6 °F 93% 30.00 in 1.2 mi South 3.5 mph - 0.00 in Snow Light Snow
1:47 AM 19.4 °F - 17.6 °F 93% 30.00 in 1.8 mi Calm Calm - 0.00 in Snow Light Snow
1:52 AM 19.9 °F - 17.1 °F 89% 30.03 in 2.5 mi Calm Calm - 0.00 in Snow Light Snow
1:59 AM 19.4 °F - 17.6 °F 93% 30.00 in 3.0 mi Calm Calm - 0.00 in Snow Light Snow
3:52 AM 19.0 °F - 16.0 °F 88% 29.99 in 10.0 mi Calm Calm - N/A   Overcast
4:52 AM 17.1 °F - 15.1 °F 92% 29.98 in 9.0 mi Calm Calm - N/A   Overcast
5:52 AM 15.1 °F - 12.0 °F 88% 29.97 in 8.0 mi Calm Calm - N/A   Mostly Cloudy
7:52 AM 12.0 °F - 9.0 °F 88% 29.98 in 8.0 mi Calm Calm - N/A   Partly Cloudy
8:52 AM 17.1 °F - 12.9 °F 84% 29.98 in 9.0 mi Calm Calm - N/A   Scattered Clouds
9:52 AM 21.9 °F 14.5 °F 12.9 °F 68% 29.96 in 10.0 mi North 5.8 mph - N/A   Clear
10:52 AM 25.0 °F 18.1 °F 12.9 °F 60% 29.92 in 10.0 mi NNE 5.8 mph - N/A   Clear
11:52 AM 25.0 °F - 12.9 °F 60% 29.88 in 10.0 mi Calm Calm - N/A   Overcast
12:52 PM 25.0 °F - 14.0 °F 63% 29.84 in 10.0 mi Calm Calm - N/A   Overcast
1:52 PM 26.1 °F 21.9 °F 14.0 °F 60% 29.81 in 10.0 mi WSW 3.5 mph - N/A   Overcast
2:52 PM 27.0 °F - 14.0 °F 58% 29.80 in 10.0 mi Calm Calm - N/A   Overcast
3:52 PM 27.0 °F - 12.9 °F 56% 29.79 in 10.0 mi Calm Calm - N/A   Overcast
4:52 PM 27.0 °F - 12.9 °F 56% 29.78 in 10.0 mi Calm Calm - N/A   Overcast
5:52 PM 25.0 °F - 15.1 °F 66% 29.77 in 10.0 mi Calm Calm - N/A   Overcast
6:52 PM 21.9 °F - 16.0 °F 78% 29.77 in 10.0 mi Calm Calm - N/A   Overcast
7:52 PM 21.0 °F - 16.0 °F 81% 29.77 in 10.0 mi Calm Calm - N/A   Overcast
8:52 PM 21.0 °F - 16.0 °F 81% 29.78 in 10.0 mi Calm Calm - N/A   Overcast
9:52 PM 21.0 °F - 16.0 °F 81% 29.76 in 10.0 mi Calm Calm - N/A   Overcast
10:52 PM 19.0 °F - 15.1 °F 85% 29.75 in 7.0 mi Calm Calm - N/A   Overcast
11:52 PM 16.0 °F - 12.9 °F 88% 29.75 in 10.0 mi Calm Calm - N/A   Partly Cloudy